Change the Weather History Date:

Thursday, March 13, 2014

  Actual Average Record
Temperature  
Mean Temperature 50 °F -  
Max Temperature 63 °F 54 °F 72 °F (2003)
Min Temperature 37 °F 38 °F 26 °F (1954)
Degree Days  
Heating Degree Days 16    
Moisture  
Dew Point 34 °F    
Average Humidity 54    
Maximum Humidity 76    
Minimum Humidity 34    
Precipitation  
Precipitation 0.00 in - - ()
Sea Level Pressure  
Sea Level Pressure 30.06 in    
Wind  
Wind Speed 6 mph (SSE)    
Max Wind Speed 14 mph    
Max Gust Speed -    
Visibility 10 miles    
Events      
Averages and records for this station are not official NWS values.
T = Trace of Precipitation, MM = Missing Value Source: NWS Daily Summary

Daily Weather History Graph

Daily Weather History Graph

Search for Another Location

Airport or City:

Trip Planner

Search our weather history database for the weather conditions in past years. The results will help you decide how hot, cold, wet, or windy it might be!

Date:

Astronomy

Mar. 13, 2014 Rise Set
Actual Time 7:09 AM PDT 6:56 PM PDT
Civil Twilight 6:39 AM PDT 7:26 PM PDT
Nautical Twilight 6:04 AM PDT 8:01 PM PDT
Astronomical Twilight 5:29 AM PDT 8:36 PM PDT
Moon 4:20 PM PDT (3/13) 5:26 AM PDT (3/13)
Length of Visible Light 12h 46m
Length of Day
11h 46m
Waxing Gibbous, 92% of the Moon is Illuminated
Mar 13
Waxing Gibbous
Mar 16
Full
Mar 23
Last Quarter
Mar 30
New
Apr 7
First Quarter

Hourly Weather History & Observations

Time (PDT) Temp. Windchill Dew Point Humidity Pressure Visibility Wind Dir Wind Speed Gust Speed Precip Events Conditions
12:53 AM 45.0 °F 41.2 °F 34.0 °F 65% 30.09 in 10.0 mi SE 6.9 mph - N/A   Clear
1:53 AM 41.0 °F 38.0 °F 33.1 °F 73% 30.09 in 10.0 mi ESE 4.6 mph - N/A   Clear
2:53 AM 42.1 °F 39.2 °F 32.0 °F 67% 30.09 in 10.0 mi SSE 4.6 mph - N/A   Clear
3:53 AM 39.0 °F 35.7 °F 32.0 °F 76% 30.09 in 10.0 mi ESE 4.6 mph - N/A   Clear
4:53 AM 39.9 °F 35.1 °F 30.9 °F 70% 30.09 in 10.0 mi SE 6.9 mph - N/A   Clear
5:53 AM 39.0 °F 34.8 °F 30.9 °F 73% 30.10 in 10.0 mi ESE 5.8 mph - N/A   Clear
6:53 AM 37.9 °F 32.7 °F 30.9 °F 76% 30.11 in 10.0 mi ESE 6.9 mph - N/A   Clear
7:53 AM 39.9 °F 35.8 °F 32.0 °F 73% 30.12 in 10.0 mi ESE 5.8 mph - N/A   Clear
8:53 AM 51.1 °F - 32.0 °F 48% 30.11 in 10.0 mi South 10.4 mph - N/A   Clear
9:53 AM 54.0 °F - 32.0 °F 43% 30.12 in 10.0 mi South 13.8 mph - N/A   Clear
10:53 AM 55.0 °F - 33.1 °F 43% 30.11 in 10.0 mi SSW 13.8 mph - N/A   Clear
11:53 AM 55.9 °F - 34.0 °F 44% 30.11 in 10.0 mi West 9.2 mph - N/A   Clear
12:53 PM 57.0 °F - 36.0 °F 45% 30.09 in 10.0 mi SW 6.9 mph - N/A   Clear
1:53 PM 59.0 °F - 35.1 °F 41% 30.09 in 10.0 mi Variable 4.6 mph - N/A   Clear
2:53 PM 61.0 °F - 32.0 °F 34% 30.06 in 10.0 mi Calm Calm - N/A   Clear
3:53 PM 61.0 °F - 33.1 °F 35% 30.05 in 10.0 mi SW 5.8 mph - N/A   Clear
4:53 PM 62.1 °F - 34.0 °F 35% 30.02 in 10.0 mi SSW 4.6 mph - N/A   Clear
5:53 PM 62.1 °F - 34.0 °F 35% 30.01 in 10.0 mi Calm Calm - N/A   Clear
6:53 PM 59.0 °F - 36.0 °F 42% 30.00 in 10.0 mi Calm Calm - N/A   Clear
7:53 PM 54.0 °F - 37.0 °F 53% 30.01 in 10.0 mi SSE 8.1 mph - N/A   Clear
8:53 PM 53.1 °F - 35.1 °F 50% 30.00 in 10.0 mi SSE 8.1 mph - N/A   Clear
9:53 PM 48.0 °F - 35.1 °F 61% 30.00 in 10.0 mi ESE 6.9 mph - N/A   Clear
10:53 PM 50.0 °F - 35.1 °F 57% 29.99 in 10.0 mi SE 6.9 mph - N/A   Clear
11:53 PM 50.0 °F - 36.0 °F 59% 30.01 in 10.0 mi SSW 12.7 mph - N/A   Clear